Weather History for KW22 - July, 2013

Change the Weather History Date:

Monday, July 22, 2013

  Actual Average (KEKN) Record (KEKN)
Temperature  
Mean Temperature 75 °F 70 °F  
Max Temperature 82 °F 81 °F 94 °F (1926)
Min Temperature 68 °F 59 °F 41 °F (1966)
Degree Days  
Heating Degree Days 0 0  
Month to date heating degree days 8  
Since 1 June heating degree days 63  
Since 1 July heating degree days 8  
Cooling Degree Days 10 5  
Month to date cooling degree days 112  
Year to date cooling degree days 227  
Since 1 June cooling degree days 204  
Growing Degree Days 25 (Base 50)    
Moisture  
Dew Point 70 °F    
Average Humidity 90    
Maximum Humidity 100    
Minimum Humidity 66    
Precipitation  
Precipitation 0.04 in 0.18 in 1.34 in (1923)
Month to date precipitation 3.90  
Year to date precipitation 27.51  
Snow  
Snow 0.00 in - - ()
Month to date snowfall  
Since 1 September snowfall  
Snow Depth -    
Sea Level Pressure  
Sea Level Pressure 29.93 in    
Wind  
Wind Speed 2 mph (SW)    
Max Wind Speed 13 mph    
Max Gust Speed -    
Visibility 7 miles    
Events Fog , Rain    
T = Trace of Precipitation, MM = Missing Value Source: NWS Daily Summary

Daily Weather History Graph

Daily Weather History Graph

Search for Another Location

Airport or City:

Trip Planner

Search our weather history database for the weather conditions in past years. The results will help you decide how hot, cold, wet, or windy it might be!

Date:

Astronomy

Jul. 22, 2013 Rise Set
Actual Time 6:13 AM EDT 8:41 PM EDT
Civil Twilight 5:42 AM EDT 9:11 PM EDT
Nautical Twilight 5:04 AM EDT 9:49 PM EDT
Astronomical Twilight 4:22 AM EDT 10:31 PM EDT
Moon 8:26 PM EDT (7/22) 6:07 AM EDT (7/22)
Length of Visible Light 15h 28m
Length of Day
14h 27m
Full, 100% of the Moon is Illuminated
Jul 22
Full
Jul 22
Full
Jul 29
Last Quarter
Aug 6
New
Aug 14
First Quarter

Hourly Weather History & Observations

Time (EDT) Temp. Heat Index Dew Point Humidity Pressure Visibility Wind Dir Wind Speed Gust Speed Precip Events Conditions
12:15 AM 69.8 °F - 69.8 °F 100% 30.01 in 5.0 mi Calm Calm - N/A   Partly Cloudy
12:35 AM 69.8 °F - 69.8 °F 100% 30.01 in 5.0 mi Calm Calm - N/A   Light Drizzle
12:55 AM 69.8 °F - 69.8 °F 100% 30.01 in 7.0 mi Calm Calm - N/A   Partly Cloudy
1:15 AM 69.8 °F - 69.8 °F 100% 30.01 in 1.5 mi Calm Calm - N/A   Scattered Clouds
1:35 AM 69.8 °F - 69.8 °F 100% 30.01 in 5.0 mi Calm Calm - N/A   Partly Cloudy
1:55 AM 69.8 °F - 69.8 °F 100% 30.00 in 4.0 mi Calm Calm - N/A   Scattered Clouds
2:15 AM 69.8 °F - 69.8 °F 100% 29.99 in 0.5 mi Calm Calm - N/A Fog Fog
2:35 AM 69.8 °F - 69.8 °F 100% 29.99 in 1.5 mi Calm Calm - N/A   Overcast
2:55 AM 69.8 °F - 69.8 °F 100% 29.98 in 5.0 mi Calm Calm - N/A   Mostly Cloudy
3:15 AM 69.8 °F - 69.8 °F 100% 29.98 in 3.0 mi Calm Calm - N/A   Mostly Cloudy
3:35 AM 69.8 °F - 69.8 °F 100% 29.97 in 4.0 mi Calm Calm - N/A   Mostly Cloudy
3:55 AM 69.8 °F - 69.8 °F 100% 29.97 in 5.0 mi Calm Calm - N/A   Mostly Cloudy
4:15 AM 68.0 °F - 68.0 °F 100% 29.96 in 1.0 mi Calm Calm - N/A   Mostly Cloudy
4:35 AM 68.0 °F - 68.0 °F 100% 29.97 in 2.0 mi Calm Calm - N/A   Mostly Cloudy
4:55 AM 68.0 °F - 68.0 °F 100% 29.97 in 3.0 mi Calm Calm - N/A   Mostly Cloudy
5:15 AM 68.0 °F - 68.0 °F 100% 29.96 in 3.0 mi Calm Calm - N/A   Mostly Cloudy
5:35 AM 69.8 °F - 69.8 °F 100% 29.96 in 5.0 mi Calm Calm - N/A   Overcast
5:55 AM 69.8 °F - 69.8 °F 100% 29.97 in 5.0 mi Calm Calm - N/A   Overcast
6:15 AM 68.0 °F - 68.0 °F 100% 29.97 in 1.8 mi Calm Calm - N/A   Overcast
6:35 AM 68.0 °F - 68.0 °F 100% 29.97 in 2.0 mi Calm Calm - N/A   Mostly Cloudy
6:55 AM 69.8 °F - 69.8 °F 100% 29.98 in 5.0 mi Calm Calm - N/A   Mostly Cloudy
7:15 AM 69.8 °F - 69.8 °F 100% 29.97 in 8.0 mi Calm Calm - N/A   Mostly Cloudy
7:35 AM 69.8 °F - 69.8 °F 100% 29.97 in 6.0 mi Calm Calm - N/A   Mostly Cloudy
7:55 AM 69.8 °F - 69.8 °F 100% 29.98 in 9.0 mi Calm Calm - N/A   Mostly Cloudy
8:15 AM 71.6 °F - 71.6 °F 100% 29.97 in 10.0 mi Calm Calm - N/A   Partly Cloudy
8:35 AM 71.6 °F - 71.6 °F 100% 29.97 in 10.0 mi Calm Calm - N/A   Clear
8:55 AM 73.4 °F - 73.4 °F 100% 29.98 in 10.0 mi Calm Calm - N/A   Scattered Clouds
9:15 AM 73.4 °F - 71.6 °F 94% 29.98 in 10.0 mi SSW 5.8 mph - N/A   Mostly Cloudy
9:35 AM 75.2 °F - 71.6 °F 89% 29.98 in 10.0 mi SSW 4.6 mph - N/A   Scattered Clouds
10:35 AM 75.2 °F - 69.8 °F 83% 29.98 in 10.0 mi South 8.1 mph - N/A   Mostly Cloudy
10:55 AM 75.2 °F - 69.8 °F 83% 29.97 in 10.0 mi SSW 11.5 mph - N/A   Scattered Clouds
11:15 AM 75.2 °F - 69.8 °F 83% 29.98 in 10.0 mi SW 9.2 mph - N/A   Scattered Clouds
11:35 AM 77.0 °F - 69.8 °F 78% 29.97 in 10.0 mi SW 9.2 mph - N/A   Scattered Clouds
11:55 AM 77.0 °F - 69.8 °F 78% 29.96 in 10.0 mi SW 9.2 mph - N/A   Partly Cloudy
12:15 PM 80.6 °F 83.9 °F 69.8 °F 70% 29.96 in 10.0 mi SSW 9.2 mph - N/A   Clear
12:35 PM 80.6 °F 83.9 °F 69.8 °F 70% 29.95 in 10.0 mi SW 8.1 mph - N/A   Partly Cloudy
12:55 PM 80.6 °F 83.9 °F 69.8 °F 70% 29.94 in 10.0 mi SSW 9.2 mph - N/A   Partly Cloudy
1:15 PM 80.6 °F 83.9 °F 69.8 °F 70% 29.93 in 10.0 mi SSW 6.9 mph - N/A   Partly Cloudy
1:35 PM 80.6 °F 83.9 °F 69.8 °F 70% 29.92 in 10.0 mi SW 8.1 mph - N/A   Clear
1:55 PM 82.4 °F 86.3 °F 69.8 °F 66% 29.91 in 10.0 mi SSW 5.8 mph - N/A   Partly Cloudy
2:15 PM 82.4 °F 86.3 °F 69.8 °F 66% 29.90 in 10.0 mi SW 8.1 mph - N/A   Clear
2:35 PM 82.4 °F 86.3 °F 69.8 °F 66% 29.90 in 10.0 mi WSW 8.1 mph - N/A   Clear
2:55 PM 82.4 °F 86.3 °F 69.8 °F 66% 29.89 in 10.0 mi SW 8.1 mph - N/A   Partly Cloudy
3:15 PM 82.4 °F 86.3 °F 69.8 °F 66% 29.89 in 10.0 mi SW 9.2 mph - N/A   Partly Cloudy
3:35 PM 80.6 °F 83.9 °F 69.8 °F 70% 29.88 in 10.0 mi SW 10.4 mph - N/A   Partly Cloudy
3:55 PM 80.6 °F 83.9 °F 69.8 °F 70% 29.87 in 10.0 mi SW 9.2 mph - N/A   Clear
4:15 PM 80.6 °F 83.9 °F 69.8 °F 70% 29.87 in 10.0 mi WSW 8.1 mph - N/A   Clear
4:35 PM 80.6 °F 83.9 °F 69.8 °F 70% 29.87 in 10.0 mi SW 4.6 mph - N/A   Clear
4:55 PM 78.8 °F - 68.0 °F 69% 29.87 in 10.0 mi WSW 6.9 mph - N/A   Clear
5:15 PM 78.8 °F - 69.8 °F 74% 29.87 in 10.0 mi WSW 6.9 mph - N/A   Clear
5:35 PM 78.8 °F - 69.8 °F 74% 29.86 in 10.0 mi WSW 6.9 mph - N/A   Clear
5:55 PM 77.0 °F - 69.8 °F 78% 29.85 in 10.0 mi West 4.6 mph - N/A   Clear
6:15 PM 75.2 °F - 69.8 °F 83% 29.85 in 10.0 mi West 4.6 mph - N/A   Clear
6:35 PM 75.2 °F - 69.8 °F 83% 29.86 in 10.0 mi WNW 8.1 mph - N/A   Mostly Cloudy
6:55 PM 73.4 °F - 69.8 °F 88% 29.87 in 10.0 mi West 12.7 mph - N/A Rain Light Rain
7:15 PM 71.6 °F - 69.8 °F 94% 29.88 in 10.0 mi Calm Calm - N/A   Partly Cloudy
7:35 PM 71.6 °F - 68.0 °F 88% 29.88 in 10.0 mi Calm Calm - N/A   Partly Cloudy
7:55 PM 69.8 °F - 69.8 °F 100% 29.87 in 10.0 mi Calm Calm - N/A   Light Drizzle
8:15 PM 69.8 °F - 69.8 °F 100% 29.88 in 8.0 mi Calm Calm - N/A   Drizzle
8:35 PM 69.8 °F - 69.8 °F 100% 29.87 in 5.0 mi Calm Calm - 0.01 in Rain Light Rain
8:55 PM 69.8 °F - 69.8 °F 100% 29.87 in 10.0 mi Calm Calm - 0.02 in   Partly Cloudy
9:15 PM 69.8 °F - 69.8 °F 100% 29.87 in 6.0 mi Calm Calm - N/A   Partly Cloudy
9:35 PM 69.8 °F - 69.8 °F 100% 29.86 in 2.5 mi Calm Calm - N/A   Partly Cloudy
9:55 PM 69.8 °F - 69.8 °F 100% 29.87 in 4.0 mi Calm Calm - N/A   Mostly Cloudy
10:15 PM 69.8 °F - 69.8 °F 100% 29.87 in 5.0 mi South 4.6 mph - N/A   Light Drizzle
10:35 PM 69.8 °F - 69.8 °F 100% 29.87 in 5.0 mi Calm Calm - N/A   Light Drizzle
10:55 PM 69.8 °F - 69.8 °F 100% 29.86 in 5.0 mi Calm Calm - N/A   Overcast
11:15 PM 69.8 °F - 69.8 °F 100% 29.86 in 8.0 mi Calm Calm - N/A   Overcast
11:35 PM 69.8 °F - 69.8 °F 100% 29.86 in 8.0 mi Calm Calm - N/A   Overcast
11:55 PM 69.8 °F - 69.8 °F 100% 29.86 in 2.5 mi Calm Calm - 0.02 in   Overcast